Regional Weather Roundup
Issued by NWS Kansas City/Pleasant Hill, MO

Home | Current Version | Previous Version | Graphics & Text | Print | Product List | Glossary Off
Versions: 1 2 3 4 5 6 7 8 9 10 11 12 13 14 15 16 17 18 19 20 21 22 23 24 25 26 27 28 29 30 31 32 33 34 35 36 37 38 39 40 41 42 43 44 45 46 47 48 49 50

000
ASUS43 KEAX 280210
RWREAX

WEATHER ROUNDUP FOR EASTERN KANSAS AND NORTHWEST MISSOURI
NATIONAL WEATHER SERVICE KANSAS CITY/PLEASANT HILL MO
800 PM CST SAT DEC 27 2014

KSZ040-057-103>105-MOZ028-029-037-043-280300-
...KANSAS CITY METROPOLITAN AREA...

CITY           SKY/WX    TMP DP  RH WIND       PRES   REMARKS
K.C. INTL      CLEAR     25  19  78 CALM      30.25S
K.C. DOWNTOWN  CLEAR     29  20  69 NW3       30.27S
LEES SUMMIT    CLEAR     26  19  74 N6        30.25F WCI  19
OLATHE - IXD   CLEAR     25  18  74 NW8       30.26S WCI  16
OLATHE - OJC   CLEAR     28  19  69 N7        30.25S WCI  21
LAWRENCE       CLEAR     24  17  74 NW6       30.28S WCI  17

$$

MOZ001>008-011>017-020>025-030>033-038>040-044>046-053-054-280300-
...NORTHERN AND CENTRAL MISSOURI...

CITY           SKY/WX    TMP DP  RH WIND       PRES   REMARKS
ST. JOSEPH     CLEAR     23  19  85 W3        30.27F
MOSBY          CLEAR     28  21  74 CALM      30.27S
WARRENSBURG    CLEAR     28  21  74 CALM      30.27S
WHITEMAN AFB   MOCLDY    28  21  74 N7        30.26R WCI  21
CLINTON        PTCLDY    32  27  80 NW5       30.27S WCI  27
SEDALIA        CLOUDY    31  23  72 NW8       30.27R WCI  23
WARSAW         NOT AVBL
MARSHALL       CLOUDY    32  25  74 NW13      30.27R WCI  22
CHILLICOTHE      N/A     29  20  69 NW7       30.27F WCI  22
MOBERLY        CLOUDY    32  23  69 W12       30.25R WCI  23
KIRKSVILLE     CLOUDY    29  23  78 NW9       30.23S WCI  20

$$

MOZ041-047>049-056>058-063>065-088>090-097-280300-
...EASTERN AND SOUTHERN MISSOURI...

CITY           SKY/WX    TMP DP  RH WIND       PRES   REMARKS
ST. LOUIS INTL CLOUDY    36  32  85 W8        30.21R WCI  30
SPIRIT OF STL  CLOUDY    35  33  92 W5        30.21R WCI  31
COLUMBIA       CLOUDY    32  26  78 NW9       30.24R WCI  24
JEFFERSON CITY CLOUDY    33  26  75 NW8       30.26R WCI  26
MEXICO         CLOUDY    34  30  86 NW8       30.23R WCI  27
HANNIBAL       CLOUDY    34  23  64 W9        30.23R WCI  26
ROLLA          CLOUDY    31  29  92 NW10      30.20R WCI  22
OSAGE BEACH    CLOUDY    32  25  74 N6        30.23F WCI  26
SPRINGFIELD    CLOUDY    31  26  82 N13       30.23S WCI  21
BRANSON        CLOUDY    32  32 100 NW6       30.23R WCI  26
NEVADA         CLEAR     27  23  86 CALM      30.29R
JOPLIN         CLEAR     27  24  89 CALM      30.28R
WEST PLAINS    CLOUDY    35  31  85 N8        30.20S WCI  29

$$

IAZ060-094-KSZ022-034>040-054-083-096-NEZ052-066-093-280300-
...KANSAS...SOUTHEAST NEBRASKA AND IOWA...

CITY           SKY/WX    TMP DP  RH WIND       PRES   REMARKS
TOPEKA         CLEAR     27  18  69 W5        30.28F WCI  22
MANHATTAN      CLEAR     24  18  77 W3        30.28S
EMPORIA        CLEAR     23  17  78 NW7       30.27R WCI  15
CHANUTE        CLEAR     27  19  72 NW3       30.29R
WICHITA        CLEAR     27  16  63 NW5       30.28S WCI  22
OMAHA          CLEAR     21  16  81 CALM      30.26S
LINCOLN        CLEAR     20  15  81 CALM      30.26S
FALLS CITY     CLEAR     24  18  77 W6        30.26S WCI  17
LAMONI         CLEAR     22  18  85 W6        30.22S WCI  14
DES MOINES     PTCLDY    23  18  81 CALM      30.22S

$$



USA.gov is the U.S. government's official web portal to all federal, state and local government web resources and services.